{"data":{"norad_id":57612,"epoch":"2026-05-25T00:22:26.672736Z","epoch_age_seconds":63867,"freshness":"FRESH","line1":"1 57612U 23119L   26145.01558649  .00000048  00000+0  11279-4 0  9998","line2":"2 57612  43.0037  10.1679 0001087 265.7132  94.3595 15.27577727154764","mean_motion":15.27577727,"eccentricity":0.0001087,"inclination_deg":43.0037,"raan_deg":10.1679,"arg_perigee_deg":265.7132,"mean_anomaly_deg":94.3595,"bstar":1.1279e-5,"rev_number":15476,"period_min":94.266888980373,"perigee_km":482.31009055933,"apogee_km":483.80171389627,"semimajor_km":6861.1929022278,"source":"CELESTRAK","updated_at":"2026-05-25T13:38:18.357312Z"}}